Theta_e
309 309 309 309 309 309 309 310 310 310 310 311 310 311 311 311 311 310 311 310 310 311 311 311 311 311 310 310 310 310 310 310 310 312 315 315 312 312 312 312 312 312 312 312 313 313 313 315 314 314 315 316 316 319 318 317 318 319 321 319 318 319 320 320 319 319 319 320 318 316 317 317 317 316 315 315 315 316 317 316 316 316 315 315 315 315 315 315
309 308 308 309 309 309 309 310 310 310 310 310 310 311 310 311 311 311 311 310 311 310 311 311 311 311 310 310 310 309 310 310 310 313 315 313 312 312 312 312 313 313 313 313 313 314 315 315 315 314 316 316 316 318 319 318 318 320 321 319 319 321 320 320 320 319 320 319 319 317 317 317 317 317 315 315 316 316 316 317 316 316 316 316 315 315 315 315
309 308 308 309 309 309 310 310 310 310 310 310 311 311 311 311 311 311 311 311 311 310 311 311 311 311 310 310 310 310 310 310 311 314 313 312 312 312 312 313 313 313 313 313 313 314 315 315 315 315 316 316 316 317 319 319 318 320 320 319 320 321 320 319 319 319 318 318 319 318 316 318 318 317 317 316 317 317 317 317 317 317 317 317 316 315 315 315
308 308 309 308 309 309 309 310 310 310 310 311 311 311 311 311 311 311 311 311 311 311 311 311 311 310 310 310 310 310 310 311 313 313 312 312 312 312 312 313 313 313 313 313 313 313 314 315 315 316 316 316 317 317 318 317 318 319 317 318 319 319 319 317 318 317 316 317 318 318 316 317 317 316 317 316 316 317 318 317 317 318 317 318 317 316 316 315
308 308 309 308 309 309 309 310 310 310 310 310 311 311 311 311 311 311 311 311 310 311 311 311 311 310 310 310 309 310 311 312 314 313 312 313 313 312 313 313 313 313 313 313 313 313 314 315 315 316 317 317 316 316 317 316 316 318 316 317 317 317 318 317 316 315 315 317 317 318 316 316 317 316 317 317 317 317 318 318 317 318 317 318 318 317 316 315
308 308 309 309 309 309 310 310 310 310 310 311 311 311 311 311 311 311 311 311 310 311 311 311 311 310 310 309 310 310 311 314 314 312 312 313 313 312 313 313 313 313 313 313 313 314 315 316 316 316 317 317 316 316 317 316 315 317 317 317 317 317 318 316 315 314 315 317 317 318 317 316 316 316 317 317 317 318 318 318 317 317 317 317 317 316 316 315
308 308 309 309 309 309 310 310 310 310 310 310 311 311 311 311 311 310 310 310 311 311 311 311 310 310 310 309 310 310 312 314 313 312 313 314 312 312 313 313 313 313 313 313 314 315 315 316 316 317 317 317 317 317 316 316 316 318 318 317 316 316 317 315 314 314 314 316 317 316 316 317 317 317 317 317 317 317 317 317 317 317 316 316 316 316 316 316
308 308 309 309 309 310 310 310 310 310 310 310 311 311 311 310 310 310 310 310 310 311 311 310 309 310 310 309 310 311 312 314 313 313 313 314 313 312 313 313 313 313 313 314 314 316 316 316 317 317 317 317 317 317 317 317 317 318 317 317 316 316 316 314 314 314 314 315 315 315 316 317 317 316 316 316 317 317 317 317 316 316 316 316 315 316 316 316
308 308 308 309 309 310 310 310 310 310 310 310 311 311 310 309 309 309 310 310 310 310 310 309 309 310 309 309 311 313 314 313 313 314 313 314 313 312 312 313 312 313 313 313 314 315 316 317 317 317 317 317 318 317 317 317 317 318 318 317 317 316 316 314 314 314 314 315 314 315 317 317 315 315 315 317 317 317 317 316 316 316 316 316 315 315 315 316
308 308 308 309 309 309 309 309 309 310 310 311 310 310 309 308 308 308 309 309 309 309 309 309 309 309 309 310 311 313 314 313 313 313 313 313 312 312 312 312 313 313 314 313 313 315 316 317 316 316 317 317 318 317 317 317 317 317 318 318 317 317 316 315 316 315 315 315 315 316 317 318 315 315 316 318 318 317 317 316 316 316 316 316 316 316 316 316
308 308 309 309 309 309 309 309 309 310 310 310 309 308 308 307 307 307 308 308 308 308 309 309 309 309 309 310 312 313 314 313 312 312 312 313 312 312 312 312 314 314 315 314 313 314 316 316 315 316 317 317 317 317 317 316 317 317 318 318 317 317 317 316 317 316 316 316 315 316 318 318 316 315 317 319 318 318 317 317 317 317 317 317 316 317 316 316
308 309 309 309 309 309 309 309 309 309 308 308 308 307 306 306 307 307 307 307 307 308 308 309 309 309 309 310 312 315 314 313 312 312 312 312 312 312 312 313 314 315 315 314 314 314 315 315 315 316 317 317 317 317 316 315 317 317 317 318 317 318 317 317 318 317 317 317 315 316 317 317 317 317 318 319 318 318 317 317 317 317 317 317 317 317 317 317
308 308 309 308 308 308 308 308 308 308 307 306 306 306 306 306 306 307 307 307 307 308 308 309 309 309 310 312 312 313 314 313 312 312 312 312 312 312 312 313 315 315 315 315 314 315 315 315 316 316 317 318 318 317 316 316 317 317 318 318 318 317 317 318 318 317 317 317 315 316 316 317 319 319 319 319 318 317 317 317 318 318 318 317 317 317 317 317
309 308 308 308 308 308 308 308 308 307 306 306 306 306 306 306 306 306 307 307 307 308 308 308 309 309 310 313 313 312 315 314 313 313 312 312 312 312 312 313 315 316 316 315 315 316 316 316 316 316 316 317 317 316 317 317 317 318 317 317 318 317 317 318 318 317 317 316 315 316 315 317 319 321 320 319 318 318 318 318 319 319 319 318 318 317 317 317
308 308 308 308 308 308 307 307 307 307 306 306 306 306 306 306 306 307 307 307 307 308 308 308 309 310 311 313 312 312 314 313 313 313 312 312 312 312 313 314 315 316 316 316 316 316 316 316 316 317 316 316 316 317 318 318 317 318 316 316 318 317 317 318 317 317 317 315 316 316 316 317 319 320 318 318 318 317 317 318 319 319 319 319 318 318 317 317
307 307 307 307 307 307 307 307 307 307 307 307 308 307 307 307 307 307 307 307 307 308 308 309 309 310 312 313 312 312 312 311 312 313 312 312 312 313 313 314 315 316 317 317 317 317 316 316 317 317 316 316 317 318 318 317 317 318 316 316 319 316 316 317 316 316 317 316 316 316 316 318 319 319 318 318 317 316 317 318 319 319 319 319 319 318 318 318
306 306 306 306 307 307 307 307 307 308 308 308 308 308 308 308 308 308 308 308 308 308 309 310 310 310 312 313 313 312 312 311 311 313 313 312 312 313 313 314 316 316 316 316 317 317 317 316 316 316 317 317 317 318 317 315 315 317 317 316 318 317 315 316 316 316 316 316 317 316 316 317 318 319 319 318 317 317 317 318 319 319 319 319 319 319 318 318
306 306 306 306 307 307 308 308 308 309 309 308 308 307 307 307 308 308 309 309 309 309 309 310 310 311 311 312 313 313 313 312 311 312 313 312 311 313 314 315 315 316 316 317 316 317 317 317 317 317 317 317 317 317 315 314 314 317 317 315 315 317 315 315 316 316 315 315 316 317 317 317 318 318 319 319 318 318 318 319 318 319 319 319 319 319 319 318
307 307 307 307 308 308 309 309 309 309 309 308 307 306 306 307 306 307 308 308 309 310 310 311 311 311 312 311 312 313 313 312 311 312 313 312 312 313 314 315 315 316 317 316 316 317 318 318 317 317 317 316 317 317 316 316 315 316 318 316 315 316 315 316 316 315 315 316 316 317 316 317 318 318 319 319 319 319 319 319 319 319 318 318 318 318 319 318
309 309 308 308 308 309 309 309 309 308 308 307 306 306 307 308 309 309 308 308 310 312 312 312 311 312 314 312 312 313 312 312 312 312 313 312 312 314 315 315 316 316 316 317 317 317 318 318 317 317 317 317 317 316 317 316 315 315 316 316 316 316 315 317 317 314 315 315 316 317 317 317 318 317 318 319 319 319 319 319 319 319 318 318 318 317 317 317
312 312 311 310 309 309 309 309 308 308 307 307 306 307 309 310 311 311 310 309 309 311 312 312 311 312 313 311 312 313 313 314 314 313 313 313 313 314 316 316 316 316 317 319 318 316 316 316 317 317 317 318 317 317 317 315 315 315 315 316 316 316 316 317 317 314 314 315 315 316 317 317 317 317 318 318 318 318 319 319 319 319 319 319 318 318 317 317
315 316 315 314 313 311 309 308 308 308 307 307 306 307 309 310 310 310 310 310 310 309 310 310 310 311 311 310 312 314 314 315 315 314 312 313 314 315 315 315 315 316 317 317 316 315 315 315 316 317 317 317 316 316 316 315 316 316 316 317 316 317 317 316 316 314 314 314 315 316 316 316 317 317 317 318 318 318 318 319 319 319 319 319 319 319 318 318
318 317 317 317 317 316 313 309 308 307 307 306 306 307 307 308 309 309 309 311 312 309 309 309 310 311 311 311 313 313 315 316 316 315 313 313 315 315 316 315 315 316 316 315 315 315 315 315 316 317 316 315 315 315 316 316 316 317 317 316 316 318 317 314 314 315 314 315 315 316 316 316 317 317 318 319 319 319 319 319 319 319 320 319 320 319 319 319
320 319 319 318 318 318 317 314 310 307 307 307 306 306 306 307 308 309 310 312 312 310 309 308 309 311 312 312 312 313 314 315 316 316 313 313 315 315 316 315 315 316 316 315 314 314 315 315 315 316 315 314 315 316 316 316 315 317 319 317 316 318 317 315 316 316 315 315 315 316 316 316 318 320 319 320 320 320 320 320 320 319 319 318 319 318 318 318
319 320 322 321 319 319 319 318 315 310 307 307 307 306 306 307 308 309 310 310 311 311 310 309 309 310 311 311 311 313 314 313 315 316 313 314 316 315 315 316 315 315 315 315 314 314 315 314 314 316 315 315 317 316 316 317 315 316 319 319 316 315 317 317 318 317 315 315 316 317 314 314 317 320 319 319 320 319 320 321 320 320 319 318 318 317 317 316
319 320 322 322 321 320 318 319 319 315 311 308 307 307 306 307 308 308 309 310 311 311 310 310 310 311 311 310 311 313 313 312 313 314 314 314 315 315 314 315 315 315 315 315 315 315 315 313 315 317 316 317 318 316 317 318 314 314 318 319 318 317 318 318 318 317 313 314 317 317 314 313 316 316 317 318 317 318 318 319 320 320 320 320 320 319 318 318
320 320 321 321 322 321 319 319 319 318 315 311 308 307 307 308 308 308 309 310 312 312 312 311 310 311 312 311 312 311 311 313 313 313 314 314 314 314 314 314 313 314 316 315 314 315 315 314 315 317 317 318 317 316 319 318 314 316 318 318 318 318 319 319 318 317 316 317 317 316 317 316 316 317 317 318 317 318 318 318 319 320 320 321 321 321 320 319
320 321 321 321 321 321 320 319 319 317 314 312 309 307 309 308 308 309 308 309 313 314 313 311 310 311 312 311 312 311 312 313 314 314 314 313 314 314 313 314 314 314 316 314 313 315 316 316 316 317 316 317 317 317 319 317 316 318 316 317 318 318 319 319 318 317 318 319 316 317 319 316 315 317 318 318 317 318 318 318 319 319 321 321 321 321 319 318
319 320 320 321 321 321 321 320 320 318 316 312 309 308 309 309 309 310 310 310 313 314 311 311 311 311 312 311 311 312 312 313 315 315 314 313 314 314 313 314 315 315 315 314 315 316 315 315 316 317 317 317 316 315 317 318 317 316 315 317 318 318 318 319 318 317 318 317 316 319 319 314 313 315 318 319 317 317 318 318 319 320 321 320 318 319 318 318
316 318 319 320 320 320 321 321 320 320 318 312 308 308 309 310 310 309 310 312 314 314 311 311 311 311 312 311 311 311 312 313 315 314 314 314 314 314 313 314 315 315 315 315 316 315 313 312 313 316 316 316 315 312 314 317 316 316 317 318 318 318 318 317 317 317 316 316 317 319 318 313 312 314 318 320 317 317 318 316 318 321 321 320 318 317 317 317
313 316 318 320 320 319 320 321 320 320 319 313 308 308 310 311 311 309 311 313 314 314 311 311 312 312 311 311 311 311 312 314 315 314 314 314 314 313 313 313 314 315 315 315 316 315 315 314 314 315 314 314 314 313 314 315 316 318 318 317 316 317 317 316 317 318 316 315 316 317 318 315 312 313 317 319 317 317 318 317 318 320 321 321 320 319 317 317
311 313 316 318 319 319 319 321 320 320 320 316 309 309 312 312 312 312 312 311 312 314 313 313 313 312 311 312 312 311 312 314 315 315 314 314 314 314 313 313 314 314 314 314 316 316 316 316 316 314 313 314 315 315 314 314 316 318 317 315 315 315 316 316 318 319 317 316 315 315 317 317 314 315 317 317 317 317 318 318 319 319 320 320 320 319 318 318
310 311 313 316 318 319 319 319 320 320 321 318 311 312 315 313 312 314 312 311 313 315 314 314 314 312 312 313 313 312 312 314 314 315 316 315 315 315 314 314 314 315 315 315 316 316 316 317 316 314 313 314 315 315 315 314 315 316 316 316 315 313 314 316 317 318 316 316 314 314 317 317 315 316 317 317 317 318 318 319 319 320 320 319 319 319 318 317
310 310 312 314 316 318 318 318 319 319 320 318 313 313 315 314 313 313 312 313 314 313 314 314 313 313 313 313 314 313 313 314 314 315 316 316 316 316 315 314 315 316 316 315 316 316 316 316 316 316 314 314 315 316 316 315 315 316 316 317 315 313 314 315 315 315 316 315 313 313 316 316 315 316 317 318 318 318 319 318 318 318 319 318 318 318 317 317
309 309 311 313 313 315 317 318 318 318 319 316 313 313 314 314 314 313 313 315 315 314 314 314 313 314 314 314 314 313 312 314 315 315 316 316 316 317 316 315 315 316 316 314 315 316 316 316 317 316 315 315 316 317 317 317 316 316 317 318 317 316 314 313 314 314 314 314 314 314 315 315 316 316 317 317 317 317 318 318 318 318 318 317 317 317 316 317
308 308 310 312 313 313 315 317 317 317 318 315 312 312 313 314 316 316 315 315 315 315 314 314 314 314 314 314 313 313 313 314 315 315 315 316 316 316 317 316 316 315 315 314 315 315 315 316 317 315 314 314 314 317 318 317 316 316 317 318 318 317 315 314 314 313 313 313 314 315 315 315 315 315 316 316 316 316 317 318 318 318 318 318 318 317 317 318
307 307 309 311 312 312 313 316 317 317 316 314 313 313 313 314 316 317 317 316 315 315 315 315 315 315 315 315 314 313 313 314 315 315 315 316 316 316 317 317 316 315 315 314 314 316 315 315 315 314 315 314 312 314 316 315 316 317 317 317 316 316 315 314 314 315 314 315 314 314 314 314 313 315 317 317 316 316 316 317 318 318 318 319 318 317 317 319
306 306 307 309 310 312 313 314 316 315 314 313 314 314 312 313 316 317 316 315 315 315 315 315 316 316 316 316 315 314 313 314 315 314 315 315 315 316 316 317 317 316 316 314 314 315 315 315 314 312 314 314 311 313 315 314 314 316 316 316 315 315 315 314 314 315 315 316 316 315 314 314 314 314 316 316 316 317 317 317 318 318 318 319 319 318 319 320
305 306 307 307 307 310 312 313 315 314 313 312 313 314 312 312 315 316 315 314 315 315 315 314 315 316 317 316 316 315 313 314 315 315 315 316 315 316 316 316 317 316 316 315 314 314 314 314 315 311 312 314 312 313 315 315 314 314 315 315 316 316 316 315 315 314 314 315 316 316 315 315 315 315 315 316 316 316 316 317 317 318 318 319 319 320 320 320
305 306 307 306 305 307 310 312 313 313 312 312 312 313 313 313 313 314 314 314 315 316 316 317 315 315 317 317 317 316 314 315 316 315 315 316 316 316 316 315 316 316 316 315 314 314 313 313 314 312 311 313 314 314 315 316 315 313 313 315 315 316 315 315 316 315 314 315 315 315 315 314 315 316 316 316 316 317 317 317 317 319 319 319 320 320 319 318
305 306 306 305 304 306 310 312 313 312 313 312 312 312 313 314 314 314 313 313 314 314 315 317 317 316 317 317 316 317 315 315 316 316 316 315 316 316 316 315 316 316 315 315 315 315 314 313 313 314 312 314 315 316 316 316 316 315 314 314 315 315 315 315 316 316 315 315 315 315 315 315 316 317 316 315 316 317 317 317 318 318 318 320 321 320 318 318
304 304 305 305 304 306 310 312 313 313 313 313 312 312 313 314 314 314 313 312 313 314 313 315 316 317 317 317 316 316 316 316 316 317 316 316 316 316 316 315 316 316 315 315 315 315 315 314 314 315 315 316 316 315 315 315 316 317 316 315 315 316 315 315 316 316 316 316 316 316 316 316 316 317 317 316 317 317 317 318 317 317 319 320 320 318 317 318
303 304 304 305 306 308 310 311 312 312 312 312 313 313 314 313 313 314 313 312 312 313 313 314 315 316 316 317 316 316 317 318 317 316 316 316 316 316 315 314 315 316 315 315 315 315 314 314 314 314 315 316 315 314 313 313 314 316 317 316 316 317 316 315 315 316 316 317 316 316 316 317 318 320 319 318 318 318 318 318 318 320 320 318 318 318 317 317
303 303 304 306 308 309 309 309 309 310 311 312 313 313 314 313 313 314 314 312 312 313 313 313 314 315 315 316 316 317 317 317 316 315 314 315 315 316 316 314 314 315 315 315 315 315 314 314 314 314 315 316 316 315 314 314 314 314 316 316 316 317 317 317 315 315 316 318 317 317 316 316 318 321 320 317 317 317 317 317 317 319 319 317 317 317 317 317
302 303 304 306 308 310 310 309 308 309 310 311 311 312 313 313 313 313 313 313 313 313 313 313 313 313 314 315 316 316 317 317 317 316 315 315 315 314 314 314 314 313 314 315 314 314 316 316 315 314 315 316 318 318 317 315 314 314 315 316 316 317 318 318 316 316 317 318 318 317 316 315 316 318 317 316 317 316 317 317 316 316 317 317 317 317 317 317
302 302 303 305 307 309 310 310 310 309 309 310 310 311 312 312 313 313 313 313 314 314 314 314 314 313 313 314 315 315 315 316 316 316 316 315 315 314 313 313 313 313 314 313 312 315 319 318 315 314 316 316 317 319 318 317 315 315 316 316 316 317 317 317 317 317 317 317 317 317 316 316 316 316 316 316 316 316 317 318 317 317 317 317 317 317 316 317
302 302 302 304 306 307 308 309 310 309 309 309 309 310 311 311 312 313 313 313 313 313 314 314 314 314 314 313 314 314 314 315 315 316 316 315 316 315 313 311 312 313 313 312 312 316 318 317 316 316 316 315 316 317 318 318 316 316 317 317 317 317 318 319 318 317 317 317 317 317 317 318 317 316 316 316 316 316 317 317 318 318 317 317 317 316 316 317
302 302 302 303 305 306 307 308 309 308 309 309 308 309 310 310 311 312 312 313 313 313 314 314 314 314 314 313 314 314 314 315 315 315 315 315 315 315 314 312 312 312 312 312 313 315 316 315 315 317 316 315 316 316 316 317 317 317 318 318 317 317 318 318 318 317 317 317 317 316 317 318 317 316 316 316 316 317 316 316 317 318 317 317 316 316 316 317
302 303 303 304 305 305 307 308 309 308 308 308 309 309 309 309 310 310 311 312 312 312 313 313 313 313 314 313 314 314 315 315 316 315 315 315 316 316 315 315 312 310 311 314 314 313 314 314 315 316 316 316 316 316 316 317 317 318 318 318 318 318 318 317 316 316 317 317 316 316 317 318 317 316 316 316 317 317 317 317 317 317 317 317 316 316 316 316
301 302 303 304 304 305 306 307 308 308 308 308 309 309 309 309 309 309 310 312 312 312 312 312 313 313 314 313 314 314 314 315 315 315 315 315 315 315 315 315 314 310 309 314 314 312 312 315 315 315 316 316 316 316 316 317 317 318 318 317 317 318 318 318 317 317 317 317 317 317 318 317 317 316 316 316 317 317 317 317 317 317 317 317 317 317 316 316
301 301 302 303 303 304 305 306 307 307 308 308 309 308 308 309 309 309 310 311 312 312 311 312 312 312 313 313 313 313 314 314 314 314 315 315 315 315 314 314 315 312 309 311 313 312 312 314 315 315 315 316 316 316 316 316 317 318 317 317 317 317 318 318 318 317 317 317 318 318 318 317 316 316 317 317 317 317 317 317 317 317 317 317 317 316 317 317
300 301 301 302 303 303 303 304 305 306 307 308 308 308 308 308 308 309 310 310 311 311 311 312 312 312 312 312 312 313 313 314 314 313 314 314 314 314 314 314 315 314 310 309 310 311 312 313 313 314 315 316 316 316 316 316 317 317 317 316 316 316 316 317 318 317 317 317 317 317 317 317 316 316 316 316 317 317 317 317 317 317 317 317 317 316 316 316
Wind_Speed
19 19 19 18 18 17 16 16 15 14 13 13 12 11 11 11 11 11 11 12 11 12 13 13 12 12 10 8 7 7 6 7 7 7 7 7 8 8 8 7 6 6 6 6 7 5 5 5 6 7 6 6 6 6 7 6 7 5 4 5 5 4 3 4 5 2 1 2 8 11 12 10 6 9 9 7 9 10 8 8 10 12 13 13 12 8 7 8
20 20 19 19 18 18 17 16 16 15 14 13 12 12 11 12 11 12 12 12 12 12 13 13 13 11 10 8 7 7 6 7 7 7 8 8 8 8 7 6 6 5 6 6 6 5 5 6 8 7 6 7 5 6 6 5 7 4 3 5 4 1 2 2 1 2 2 1 6 10 11 9 5 8 10 7 9 12 11 10 12 13 12 14 16 14 11 9
21 21 20 20 19 18 17 17 16 15 14 13 12 12 11 12 12 12 12 12 13 13 13 13 12 11 10 8 7 6 5 6 7 9 10 9 8 8 7 6 6 5 6 6 7 7 7 6 8 8 7 6 4 6 6 6 7 3 3 5 1 3 4 3 2 4 5 3 4 8 9 8 4 5 8 8 10 10 11 12 12 13 13 15 17 16 16 14
23 22 21 20 19 19 18 17 16 14 13 13 12 12 12 12 12 12 12 13 13 14 14 13 12 12 10 9 7 6 5 5 8 11 10 10 9 9 8 6 6 5 4 5 6 7 7 7 8 7 7 6 5 7 6 5 5 2 3 3 3 2 2 4 3 5 6 4 3 6 7 7 5 4 7 8 9 9 11 14 13 12 11 14 17 15 16 17
24 24 22 21 20 19 18 17 16 15 14 13 13 13 13 13 13 13 13 13 14 14 14 13 12 12 11 9 8 7 7 4 8 13 11 11 11 10 9 7 6 4 4 5 5 7 8 7 7 7 7 6 7 7 4 5 4 3 2 3 5 1 1 4 2 3 5 5 3 5 4 6 5 5 9 10 10 6 4 7 10 11 7 7 13 14 14 17
23 24 23 21 20 19 18 16 16 15 14 14 13 13 13 13 13 13 13 14 14 14 14 13 13 13 11 9 8 10 9 2 5 14 12 12 12 11 10 7 5 4 3 4 5 7 7 8 8 8 7 5 7 6 4 5 5 2 2 3 4 4 3 3 2 3 2 3 2 2 2 2 4 7 10 13 16 10 5 4 6 8 8 7 10 14 13 15
23 23 23 22 21 20 18 16 16 15 14 14 13 13 13 13 13 13 14 14 14 14 14 13 13 13 10 10 9 11 11 6 4 13 12 12 12 12 11 7 4 2 2 4 5 6 7 9 9 7 6 4 5 4 5 5 5 4 2 6 3 5 4 3 2 4 3 1 0 0 2 4 7 7 5 12 21 17 14 15 12 10 11 10 11 13 13 14
23 22 22 22 21 20 19 17 16 15 14 14 13 13 13 13 14 14 14 14 14 14 14 13 13 13 10 10 9 9 11 7 6 12 12 12 12 12 11 7 5 3 3 4 5 7 7 8 8 7 5 3 4 6 5 6 5 4 3 7 3 4 4 4 4 4 3 1 1 2 5 5 6 5 5 16 21 16 17 22 21 19 17 16 15 14 14 14
22 21 21 21 20 19 18 17 16 15 15 14 13 13 13 13 14 14 14 14 14 14 14 14 13 12 11 10 8 7 9 8 8 12 12 12 12 11 9 6 5 4 3 5 7 7 7 7 7 6 2 4 5 6 5 5 2 1 5 7 5 6 5 5 5 5 3 1 1 3 6 4 3 5 10 21 23 16 17 22 24 23 21 21 20 19 19 18
21 21 19 19 19 18 17 16 16 15 15 14 14 14 14 14 14 14 15 14 15 14 14 14 13 12 11 10 8 6 7 9 9 11 12 12 12 10 8 5 4 3 2 4 7 8 6 5 5 5 3 5 5 4 2 3 2 5 8 7 6 6 5 4 5 5 3 2 3 5 6 4 3 3 9 14 15 17 20 21 23 24 23 24 23 23 23 22
21 20 19 17 17 16 16 16 15 15 15 15 15 14 14 14 14 14 14 14 15 15 15 14 13 12 11 10 9 7 7 10 10 11 11 12 12 9 7 4 3 3 2 4 7 9 7 5 7 5 4 6 6 5 3 3 4 6 8 7 6 5 5 5 4 6 4 2 3 5 6 8 3 4 14 13 9 12 14 15 17 19 21 22 23 24 25 25
19 19 18 17 16 16 15 15 15 15 15 15 15 15 14 14 15 15 15 15 15 15 15 14 13 12 10 11 10 7 9 11 10 11 12 11 10 8 6 4 3 4 4 4 6 8 7 8 8 3 4 7 7 5 4 6 4 5 6 5 6 5 5 7 5 5 4 2 3 1 6 11 9 14 23 18 14 14 11 11 12 14 17 18 20 22 24 25
19 19 19 18 17 16 16 15 15 14 14 14 15 14 15 15 15 15 15 15 15 15 15 14 13 12 10 9 8 7 9 10 10 11 12 12 10 8 6 4 3 5 6 5 7 8 8 10 7 4 7 5 3 5 7 6 3 6 5 3 4 5 5 8 6 4 4 3 4 1 5 8 10 19 22 14 16 16 13 14 14 14 16 17 20 22 23 23
20 19 19 18 17 17 16 16 15 14 14 14 14 14 14 14 15 15 15 15 16 15 15 14 13 12 10 6 6 9 9 8 10 12 12 12 10 8 6 5 4 5 6 5 7 8 8 8 6 6 7 4 6 8 7 5 4 5 3 3 3 4 3 7 6 6 6 4 6 4 5 7 7 8 11 12 15 14 14 16 15 15 14 14 18 21 23 24
20 19 18 17 17 17 17 16 15 14 13 13 13 13 13 14 14 14 15 15 15 15 15 14 13 12 9 5 6 10 11 9 8 11 13 12 10 8 7 6 5 6 6 5 7 7 8 9 6 5 6 6 9 7 5 5 4 3 3 3 4 3 3 7 5 6 4 3 8 7 4 8 9 1 6 9 12 12 14 16 15 15 14 13 15 18 22 23
19 18 18 17 17 17 17 16 15 14 13 12 12 12 13 13 13 14 14 14 15 15 14 13 14 11 6 5 8 10 12 11 10 10 12 13 11 10 8 7 6 6 6 6 6 7 9 8 6 6 6 6 6 5 4 4 3 4 5 3 4 5 4 5 4 4 2 3 8 10 6 6 4 2 2 6 9 10 11 13 14 14 13 13 13 16 20 22
18 18 17 16 16 15 15 15 14 13 12 11 11 11 12 12 13 14 13 14 14 14 14 11 12 11 6 5 7 9 13 13 12 12 12 14 12 11 10 8 7 7 6 6 6 6 5 5 6 5 4 4 5 4 4 5 5 5 4 4 3 4 4 3 4 4 3 3 6 10 10 11 9 7 7 8 9 10 10 13 14 14 14 14 13 16 22 24
16 16 16 16 15 14 14 13 12 12 11 11 10 10 10 11 12 14 13 14 13 12 12 10 11 7 6 9 9 9 15 15 14 13 12 14 13 12 12 9 8 8 7 5 5 3 3 4 4 2 3 5 4 6 6 3 3 4 5 4 4 5 6 5 2 4 4 5 7 9 11 14 15 15 17 17 15 14 15 17 18 19 19 19 18 20 24 29
15 15 14 14 14 13 13 13 12 12 11 11 10 10 10 9 10 11 13 15 13 8 6 9 13 5 1 12 16 13 15 15 14 15 15 15 15 14 11 9 9 8 6 5 4 4 3 4 4 3 4 6 7 8 5 1 3 1 1 2 4 3 4 3 4 3 2 4 7 11 13 15 14 14 17 19 19 19 21 20 20 19 19 20 22 24 27 32
15 14 14 13 12 12 12 12 12 12 13 13 13 12 10 10 8 6 11 15 14 8 3 9 14 5 1 11 17 14 13 15 15 16 17 17 17 14 10 9 9 7 5 4 4 4 3 4 5 6 6 7 9 6 0 4 3 2 1 3 3 3 3 2 5 4 1 4 8 10 12 16 16 13 15 19 20 21 22 22 21 20 19 20 23 30 34 36
12 13 13 13 12 13 12 12 12 12 14 14 16 14 8 10 7 4 11 12 15 13 4 9 14 5 2 10 16 15 13 12 12 16 18 18 18 14 11 11 8 6 4 3 4 4 3 5 7 7 2 1 2 2 1 1 2 2 3 3 3 4 3 3 5 3 2 2 7 9 12 16 17 14 15 18 17 20 23 22 22 22 21 21 24 32 36 34
8 10 12 12 11 12 12 13 13 13 14 15 18 15 8 11 8 5 10 8 14 18 8 8 13 5 5 11 16 15 11 8 9 15 18 19 18 12 11 12 8 6 6 5 4 3 4 7 7 4 4 5 3 2 2 3 3 3 3 3 3 2 1 3 5 2 2 2 6 9 11 15 18 16 16 18 19 23 26 24 22 22 21 21 23 26 27 27
6 7 9 10 10 10 10 12 14 14 16 15 18 17 10 11 10 6 9 4 7 17 13 9 10 6 6 10 15 15 10 6 8 15 20 19 16 10 10 13 10 6 7 8 7 5 5 5 3 5 5 4 2 3 4 3 3 4 3 4 3 0 1 1 2 1 4 4 7 11 10 12 16 16 15 19 22 24 25 23 22 22 22 24 25 23 22 24
9 7 6 7 8 9 8 10 13 15 18 16 17 18 11 8 9 7 8 3 1 9 13 14 11 9 10 9 12 13 8 5 6 13 22 20 13 9 9 10 10 7 7 10 10 9 5 2 3 4 4 5 4 4 5 4 4 6 6 6 5 2 3 2 2 3 5 6 5 9 9 8 10 12 11 9 11 14 17 16 18 21 23 25 26 25 25 27
11 10 8 7 6 7 8 7 10 12 17 18 17 17 13 8 8 6 6 4 3 5 8 13 12 11 14 12 10 10 6 5 6 12 22 19 11 8 6 5 6 8 10 10 10 10 4 4 4 5 4 5 6 5 7 6 5 5 7 7 8 7 5 3 4 6 5 4 2 3 7 5 4 7 9 5 4 9 11 12 14 19 20 21 24 25 26 27
14 13 11 10 7 7 7 5 7 9 12 17 17 16 15 11 8 7 5 3 4 5 5 9 10 9 13 13 11 9 4 7 9 12 21 21 13 9 5 3 3 4 7 8 5 5 2 4 4 5 6 6 5 5 6 6 6 4 2 3 6 7 4 4 5 4 4 4 1 2 6 6 5 9 12 11 12 14 13 11 15 18 16 17 22 24 24 24
19 17 14 13 10 8 7 4 6 7 7 11 16 16 15 13 10 7 5 4 5 7 8 8 10 9 10 12 15 11 3 7 10 11 19 21 15 10 6 6 4 2 3 4 3 2 5 6 5 5 6 6 6 5 6 8 7 2 1 3 0 2 2 2 3 4 4 7 3 6 5 8 8 9 13 14 14 15 14 11 13 16 16 15 16 16 15 15
19 20 17 15 12 8 8 7 6 6 6 8 15 17 15 14 12 7 4 5 3 7 7 7 9 10 12 16 17 8 3 10 8 9 20 21 15 9 7 7 7 7 8 6 5 2 5 8 8 9 8 6 5 1 5 11 6 0 2 3 4 3 0 1 2 4 3 6 6 5 5 6 8 5 9 12 13 12 12 11 12 14 12 9 9 8 8 8
15 18 18 16 13 12 12 11 8 8 5 6 15 18 16 16 11 4 4 5 3 5 4 8 10 10 13 15 11 5 5 5 0 8 19 17 14 7 4 6 7 7 10 8 5 1 2 2 5 8 7 5 3 6 2 6 3 3 5 5 6 4 2 2 2 4 2 6 7 6 8 5 10 6 7 8 8 9 9 10 10 8 5 5 4 3 5 7
14 15 15 15 16 16 15 13 11 10 4 5 15 20 18 14 7 5 6 4 4 4 4 8 9 10 15 13 7 5 5 2 4 11 11 7 10 6 1 3 3 3 6 5 4 2 3 2 1 4 2 2 6 7 6 2 5 8 7 5 5 3 2 1 2 1 3 8 5 6 10 4 8 8 5 7 8 9 8 7 6 3 7 6 3 3 7 9
13 14 15 16 18 17 16 16 15 13 7 5 15 21 15 7 3 7 8 1 1 4 5 6 8 12 17 14 8 6 5 3 8 13 8 4 7 6 4 4 2 3 4 5 5 3 3 2 1 2 2 5 8 6 5 4 5 6 4 4 3 2 2 2 3 2 5 7 0 3 5 6 7 7 4 6 6 8 5 5 5 3 4 4 2 7 11 11
12 13 14 15 17 16 17 17 16 16 12 8 16 19 10 4 4 8 6 4 1 6 7 7 8 11 16 14 9 9 8 6 9 11 8 7 8 7 9 8 6 6 5 7 6 3 3 5 4 4 3 6 7 6 5 2 3 4 4 6 4 3 4 4 5 4 6 5 2 2 1 5 12 12 6 4 5 7 6 6 7 5 5 8 10 14 17 17
14 14 14 14 16 17 18 17 14 18 16 11 15 13 5 5 7 9 9 5 1 3 5 7 9 11 15 12 8 10 8 6 10 9 8 9 8 9 11 11 11 8 5 7 6 4 3 3 6 6 2 8 10 6 5 4 6 8 7 7 6 5 5 7 6 5 5 3 2 2 1 5 11 11 10 12 12 12 12 11 10 10 12 17 18 19 21 22
15 15 14 15 15 16 18 17 15 17 17 14 12 6 4 8 9 10 12 6 2 3 4 7 10 11 12 8 6 10 7 5 10 9 7 9 7 8 10 12 13 9 3 4 6 7 7 4 8 10 6 12 13 8 7 6 8 10 8 7 7 6 7 7 5 5 6 2 1 3 3 5 7 2 2 4 5 6 9 12 15 17 19 21 22 22 22 24
14 15 16 16 16 17 17 17 17 16 17 14 9 3 7 10 8 9 10 5 4 5 5 8 10 9 9 3 1 7 3 2 10 8 6 9 8 8 10 10 13 11 6 7 4 6 9 6 8 7 7 17 15 8 7 6 6 7 5 6 8 5 6 5 2 1 2 2 2 4 4 6 6 8 9 7 5 5 8 11 13 17 19 18 18 21 23 26
11 13 17 17 18 19 17 17 18 18 18 13 7 4 10 7 2 3 4 3 5 8 10 10 8 7 8 4 2 6 2 0 8 7 5 9 8 10 10 9 13 15 11 8 3 4 6 3 6 5 4 12 8 2 5 3 3 5 5 6 3 2 2 5 2 3 2 5 6 5 7 8 8 14 15 13 14 13 12 12 11 13 14 14 17 23 27 27
11 11 15 18 20 18 18 18 17 19 20 13 5 5 7 5 2 1 3 3 7 13 11 8 7 8 9 7 6 9 5 3 8 7 6 7 6 10 12 9 11 16 16 12 5 4 5 2 2 4 4 4 1 3 2 2 2 3 5 5 3 4 1 4 5 2 3 8 6 6 11 10 8 9 5 4 10 12 11 11 10 12 13 14 20 27 28 24
12 10 12 17 19 18 19 19 18 19 16 8 4 5 4 4 3 1 4 2 6 12 9 7 7 8 10 9 8 11 9 6 9 8 6 6 5 10 13 8 9 15 20 18 8 2 4 4 2 1 1 3 3 1 3 0 1 1 1 1 2 2 4 5 6 5 7 8 6 8 12 10 10 11 6 3 6 7 7 9 8 9 11 13 18 24 23 19
11 8 9 15 18 17 18 20 21 19 10 3 4 5 4 4 3 3 3 4 1 6 9 9 8 7 8 8 8 11 11 9 10 8 7 7 5 8 13 10 9 13 19 19 10 3 4 6 3 0 1 3 5 5 7 5 3 1 3 2 2 2 4 4 5 5 6 8 6 8 10 9 11 11 11 13 12 11 11 9 8 8 11 13 15 18 19 17
9 6 7 13 17 16 18 20 21 16 6 3 4 4 5 6 5 9 11 6 3 2 4 5 8 8 7 7 6 9 10 10 10 8 7 8 6 5 10 10 8 9 14 17 11 5 4 5 5 1 0 3 5 8 10 9 8 6 6 6 5 3 1 2 4 4 5 6 6 7 8 10 10 7 10 15 12 11 10 8 6 6 9 12 13 15 18 20
8 6 7 14 17 17 21 18 14 9 4 4 5 5 6 7 7 12 16 12 4 2 1 1 2 3 3 5 6 7 8 9 9 8 6 9 9 5 6 10 9 9 10 11 10 8 6 6 6 4 4 7 6 6 7 8 8 9 9 10 10 8 5 4 6 5 3 4 6 6 7 13 11 2 6 12 8 5 5 4 4 6 9 11 11 13 16 19
10 6 5 13 18 21 23 14 7 8 7 7 8 10 9 6 7 11 11 11 7 3 1 0 0 0 2 3 2 2 5 6 8 9 7 8 12 7 4 7 10 13 10 6 7 9 5 3 7 5 5 6 3 2 1 2 2 5 6 7 9 8 8 8 8 4 3 3 4 5 8 14 10 2 1 5 2 2 3 3 6 8 9 9 9 12 16 19
14 9 5 14 21 25 22 10 8 8 7 9 11 11 11 7 7 9 9 10 8 4 3 3 3 4 4 3 1 1 1 3 4 7 6 6 8 5 3 5 8 11 9 4 4 6 3 2 6 6 5 4 4 3 2 3 2 5 5 3 4 7 9 7 4 2 3 5 5 5 8 14 8 3 1 1 2 1 3 6 8 8 8 9 10 13 17 22
14 11 8 14 24 27 19 8 9 10 8 10 10 9 12 10 9 10 9 10 9 6 6 5 5 8 6 4 5 3 2 2 3 4 5 5 4 1 4 8 8 8 7 3 3 8 6 3 5 5 6 6 5 4 3 2 2 5 6 6 6 9 8 3 0 1 4 8 11 9 8 13 8 4 4 3 4 4 5 8 11 10 10 11 12 15 19 25
11 10 9 14 23 27 20 10 7 10 11 12 11 11 12 9 11 15 13 11 12 9 7 7 9 11 7 4 6 7 6 6 4 3 4 6 3 1 3 8 9 9 10 6 4 9 7 3 5 7 7 8 8 5 4 5 5 4 7 10 12 13 11 6 2 4 8 12 13 10 9 15 15 7 4 4 5 6 6 8 11 13 14 13 13 16 21 28
10 9 7 12 19 23 22 16 9 7 10 13 11 11 14 10 9 15 15 12 14 14 9 9 12 12 8 7 9 9 10 11 8 5 4 5 4 1 3 9 11 12 11 8 8 9 2 1 6 8 9 10 9 3 4 7 8 7 10 13 14 14 14 10 5 8 11 11 11 12 13 19 23 21 16 8 5 6 6 6 9 11 13 14 14 17 24 30
9 8 8 10 12 14 15 16 14 9 10 14 10 8 15 16 9 11 14 12 13 15 10 8 11 12 10 12 11 10 12 13 12 10 8 7 4 1 1 5 10 11 7 5 10 8 2 2 7 10 12 15 15 11 4 6 9 11 13 13 14 14 14 12 11 14 14 10 11 14 14 17 22 25 24 17 12 11 9 10 13 12 12 14 15 18 24 27
10 10 14 14 9 8 9 13 18 16 14 14 11 9 14 17 13 11 12 10 12 15 10 8 13 16 16 15 11 9 12 13 13 13 11 9 6 3 2 2 4 6 5 3 5 4 2 5 9 10 14 18 19 19 15 11 11 12 13 13 15 16 16 15 16 19 17 12 12 15 16 17 20 26 26 18 14 17 18 19 20 18 17 15 15 19 23 25
13 10 13 15 10 8 10 13 16 18 17 14 11 11 14 17 18 15 11 8 10 13 13 11 14 18 19 18 13 11 12 12 10 11 10 9 8 6 4 3 1 2 3 3 2 1 2 6 10 11 13 16 19 20 19 17 16 14 14 13 13 16 19 20 20 21 20 17 16 19 22 22 20 24 26 23 23 27 28 27 23 20 20 18 17 21 25 28
17 11 9 11 10 9 11 13 13 12 14 13 10 10 13 16 17 15 12 11 9 10 14 16 17 17 18 20 17 14 13 12 10 11 11 10 9 7 5 5 3 1 1 3 1 1 3 4 5 6 8 12 16 18 18 17 14 13 13 14 15 17 19 20 19 16 15 17 20 23 23 21 20 21 24 31 34 29 27 28 26 24 22 19 20 26 30 31
21 15 10 7 8 10 10 10 11 10 8 9 11 11 13 17 17 13 12 15 14 10 13 18 18 14 14 17 19 16 15 15 14 12 10 8 8 8 7 7 7 4 2 3 2 2 4 3 1 0 5 9 11 14 16 14 11 10 12 15 18 20 17 15 13 12 14 17 19 19 17 15 17 17 19 27 31 24 22 28 29 27 24 22 24 30 32 32
25 20 16 9 7 11 11 7 10 12 8 8 11 12 12 16 18 15 10 11 15 14 13 16 15 11 10 14 16 13 11 12 13 11 9 8 8 7 7 9 10 6 5 5 2 3 5 4 1 3 5 7 11 13 11 10 8 8 12 17 19 18 16 13 12 16 20 17 14 13 12 14 17 18 17 22 24 19 21 28 30 27 26 28 31 33 33 34
Wind_Direction
190 193 192 193 194 192 192 194 196 196 197 199 201 203 206 209 211 215 215 213 212 211 211 207 206 204 200 203 204 200 195 194 188 181 190 205 198 187 188 188 188 187 175 176 173 166 158 173 177 160 159 168 168 168 177 174 166 185 212 224 227 217 194 166 193 184 50 112 141 160 172 187 175 175 205 216 224 231 239 233 224 236 235 238 246 237 225 207
189 193 193 195 195 195 194 196 198 198 199 200 202 205 208 210 212 214 215 214 213 212 211 207 206 203 200 204 206 202 197 195 188 194 206 197 186 185 183 178 179 181 176 174 175 180 185 193 181 169 176 174 163 168 175 173 178 211 236 226 237 196 95 84 226 132 45 15 146 160 178 197 181 163 187 209 223 215 229 234 222 234 236 236 244 238 230 219
188 192 194 196 196 196 196 198 199 199 200 201 203 207 210 212 213 214 214 214 212 211 210 207 206 202 200 204 206 202 199 197 195 205 205 190 185 182 171 167 168 169 177 176 174 192 204 194 181 182 187 177 167 174 177 181 191 227 245 231 227 90 85 57 29 81 59 25 148 161 173 193 183 151 176 213 235 217 227 234 218 224 226 228 240 239 230 228
189 192 195 195 196 198 198 198 198 199 200 202 204 207 211 212 213 213 212 212 210 209 208 206 205 200 200 202 203 198 193 204 211 213 203 189 186 176 167 159 154 157 167 170 169 181 185 182 181 185 192 180 162 179 182 180 192 192 218 262 37 89 109 85 71 78 66 46 140 145 157 196 190 168 192 221 241 228 233 238 227 229 229 219 228 240 234 233
192 192 194 194 196 199 200 199 198 199 201 203 207 209 211 212 212 211 210 210 208 207 205 205 203 198 199 199 198 184 180 195 204 206 200 188 186 176 170 159 147 138 146 161 165 172 173 178 178 184 202 179 161 184 173 165 197 182 183 13 37 358 96 95 93 115 85 61 118 141 158 190 174 199 222 228 237 239 253 241 222 230 241 208 216 239 245 239
196 193 193 194 196 199 200 200 199 201 203 205 210 211 213 212 212 209 208 208 205 205 203 203 201 197 198 199 196 187 192 235 192 192 192 188 189 184 179 171 161 141 144 159 164 178 177 183 186 189 201 177 175 187 131 157 208 218 146 93 58 17 64 99 124 167 128 63 124 157 164 171 190 226 229 231 238 245 298 283 220 225 239 228 228 246 253 247
199 195 194 193 195 198 199 201 202 204 206 209 213 215 216 214 211 208 206 206 202 202 201 202 200 195 198 200 200 202 217 276 225 189 187 189 192 192 191 188 189 177 176 167 178 195 186 195 200 195 192 169 178 165 118 159 208 257 148 124 88 47 82 92 117 176 159 77 267 233 266 237 230 240 231 238 242 244 264 268 254 246 247 243 241 250 255 253
201 197 196 194 195 197 198 202 204 206 208 212 216 217 218 215 212 207 204 203 201 200 198 199 197 192 198 198 200 213 222 246 222 190 185 192 194 196 200 202 218 231 215 189 192 200 196 205 199 192 193 144 154 147 142 170 200 253 139 126 118 85 98 92 107 149 139 179 270 234 253 249 237 260 269 253 251 246 251 257 258 257 258 257 250 252 255 253
201 199 198 198 198 198 200 204 205 207 209 212 216 217 218 214 212 207 203 201 199 199 196 196 193 192 197 196 204 219 212 214 206 189 187 192 193 197 203 208 225 233 229 202 192 193 198 205 191 198 188 107 143 144 165 204 194 151 126 131 135 116 110 111 118 123 129 172 179 219 239 238 237 268 266 256 254 247 241 247 256 258 259 260 257 255 254 253
200 199 200 201 202 203 204 205 207 209 211 213 214 215 215 213 211 207 203 200 198 197 193 192 190 193 196 192 208 219 198 200 193 184 188 188 188 194 197 200 210 201 219 211 195 192 202 206 187 186 130 116 145 135 180 245 91 113 128 130 127 127 127 132 138 135 150 162 177 238 250 240 229 246 256 253 245 240 240 244 252 257 256 256 258 257 256 254
199 196 198 202 205 208 208 208 209 210 213 214 212 211 211 210 208 205 202 199 196 195 190 190 189 193 194 193 215 222 191 193 186 181 183 181 185 189 188 188 184 166 174 209 198 191 203 198 174 172 149 145 140 111 95 104 104 128 139 136 131 137 142 159 159 151 185 166 177 255 277 260 231 218 245 245 238 236 235 238 246 253 252 251 254 255 256 256
198 195 196 199 204 208 209 210 209 210 212 212 210 207 205 205 205 202 199 196 194 193 188 187 189 190 192 200 225 228 192 190 185 181 180 178 183 186 185 176 172 160 141 180 192 183 190 173 165 159 132 152 147 124 118 114 114 146 167 172 153 172 182 178 167 152 208 180 130 272 277 256 225 230 245 240 238 243 233 236 242 249 252 250 251 251 255 255
196 194 195 197 200 204 206 207 209 211 210 209 207 203 201 199 198 198 195 193 191 190 187 187 188 189 193 206 225 214 190 189 187 184 180 180 182 181 181 162 162 154 135 166 176 163 171 165 166 153 134 146 137 121 122 119 142 162 190 246 166 199 204 173 163 152 206 173 127 216 265 255 226 231 240 230 232 241 243 249 250 250 251 253 254 255 256 256
190 190 194 196 199 201 202 204 207 209 208 207 205 201 199 195 194 194 191 190 188 187 186 187 186 188 198 216 214 198 187 182 186 187 182 181 181 178 173 159 157 151 136 158 161 150 158 155 156 158 143 121 118 131 131 137 186 169 173 250 205 222 171 149 162 168 196 172 149 208 255 268 268 229 209 211 229 238 247 253 254 252 248 249 256 261 263 261
184 186 190 194 197 198 200 203 205 207 206 205 202 200 197 194 193 191 188 187 185 184 184 186 185 187 204 224 208 198 193 188 186 187 186 180 174 172 168 159 153 147 137 144 149 142 141 139 138 139 123 119 139 156 160 158 193 183 187 209 201 231 147 135 160 180 200 162 167 203 248 260 266 162 150 218 235 234 246 254 257 256 251 247 252 263 267 264
177 181 186 192 194 197 199 201 204 204 204 203 200 199 196 194 193 189 188 184 183 183 181 184 188 192 210 210 200 202 200 198 192 185 187 181 173 173 168 154 151 149 140 141 140 134 135 131 127 127 124 143 173 196 182 176 193 193 227 224 174 209 193 144 155 179 185 140 182 212 252 268 247 115 132 257 252 234 244 255 258 258 255 253 249 259 269 268
175 179 184 189 192 196 197 199 202 200 201 200 198 198 196 193 192 190 188 184 184 182 182 186 188 201 232 208 193 201 202 201 194 187 186 183 176 172 165 155 158 153 141 141 133 128 128 125 131 140 169 204 214 210 196 209 209 188 218 237 196 214 229 188 143 146 171 202 217 219 240 258 262 273 268 263 255 232 237 252 258 260 259 260 258 261 269 270
175 180 184 187 189 192 194 197 197 196 197 193 191 192 190 190 190 190 187 185 183 180 189 192 180 196 233 202 194 202 204 200 191 187 182 181 179 174 171 163 157 149 145 151 140 138 138 147 172 184 200 211 208 208 212 225 236 206 197 219 224 215 235 247 152 141 176 211 239 236 243 254 258 266 265 260 254 239 243 253 257 258 259 262 263 261 264 267
173 178 182 186 189 191 194 195 193 192 188 184 183 179 174 174 178 186 188 183 177 177 199 189 184 207 211 186 195 202 201 193 186 184 178 179 179 175 176 167 160 162 172 181 154 154 167 164 206 225 201 205 207 216 226 25 11 352 176 247 257 231 233 221 107 110 189 233 245 245 254 262 260 260 263 264 261 256 257 260 257 255 254 256 257 257 259 264
170 173 177 181 186 190 195 196 194 189 183 181 176 169 161 160 161 180 189 188 190 204 246 180 188 235 42 175 190 188 182 179 179 183 180 180 175 167 169 163 163 184 206 202 147 151 201 201 205 218 223 219 209 212 63 50 26 359 325 280 261 269 270 134 106 101 137 265 258 253 263 270 269 266 267 269 269 267 264 261 257 252 247 245 250 258 262 264
167 167 167 172 178 185 190 192 195 191 186 184 176 171 172 177 179 173 177 196 211 214 233 181 188 217 173 177 183 171 160 165 175 185 183 177 171 167 170 170 179 199 181 118 110 134 196 226 223 222 226 79 172 166 81 47 312 285 268 272 248 253 259 107 98 121 141 265 269 273 277 275 275 272 270 270 269 267 263 259 256 253 249 243 245 257 263 265
175 169 160 161 167 176 184 185 190 190 189 190 184 182 191 196 202 180 174 203 216 212 230 198 192 201 162 170 175 165 151 155 174 185 181 172 175 180 174 181 204 196 151 131 143 159 207 231 226 185 96 80 83 118 206 236 255 242 240 263 260 254 251 105 95 120 169 240 279 290 287 279 280 279 269 261 257 259 260 259 259 260 258 249 244 250 257 261
183 182 166 161 157 162 176 182 185 187 189 193 193 195 202 202 204 191 189 215 212 210 226 219 202 201 173 168 175 170 160 162 169 181 182 174 181 195 177 188 213 187 160 186 201 205 217 222 190 119 115 139 142 159 196 213 228 232 234 248 247 177 276 235 106 141 201 230 284 296 289 278 278 275 267 254 245 251 259 262 263 262 259 254 249 249 252 254
180 191 190 178 167 160 163 177 185 188 191 194 198 202 207 204 196 190 198 239 251 204 220 223 214 205 194 182 179 183 188 182 162 181 187 178 178 196 188 199 214 196 191 205 213 229 228 99 94 125 156 193 180 173 197 219 233 226 220 237 254 276 286 277 14 326 243 225 263 291 284 268 261 259 265 256 230 238 252 255 256 255 256 258 256 255 258 258
191 206 211 198 194 181 169 177 186 188 193 196 198 200 202 194 182 185 199 239 251 193 211 220 216 214 209 203 185 182 207 204 175 183 186 182 180 187 186 205 216 212 211 204 215 238 227 100 128 151 160 193 196 197 204 221 246 227 212 226 250 279 309 316 344 335 284 238 192 295 295 275 246 256 266 268 235 244 242 234 246 253 253 256 258 261 265 268
200 210 214 209 210 202 188 183 186 191 196 200 199 193 195 188 173 184 194 241 251 182 172 197 201 209 208 201 176 165 213 210 193 191 185 184 184 179 172 174 208 237 207 188 220 253 171 128 159 158 160 173 197 222 200 205 244 244 224 247 254 273 302 309 318 309 289 304 186 199 286 283 276 270 269 271 269 270 265 251 256 259 251 246 255 264 271 274
200 202 209 212 208 204 199 191 191 194 192 202 202 190 187 182 169 170 181 250 248 167 151 172 185 192 184 173 168 173 202 165 169 183 183 186 185 187 204 173 168 232 160 153 228 214 139 164 181 169 174 176 200 221 182 193 232 243 25 2 322 245 264 275 302 272 286 319 270 193 235 275 274 257 253 259 263 265 266 261 258 259 253 246 253 263 268 272
200 199 205 207 203 200 201 202 193 179 177 198 197 187 181 173 162 155 188 247 217 145 150 162 170 180 169 161 167 171 125 139 155 177 179 187 184 188 230 203 191 198 171 183 224 171 137 177 185 179 188 201 205 199 164 191 218 45 66 38 77 90 4 192 268 272 296 318 281 191 183 264 279 241 216 233 244 249 254 256 259 258 248 239 247 257 264 275
202 204 209 209 205 202 203 208 195 175 178 191 186 182 174 165 154 149 222 239 159 122 140 156 161 170 161 160 167 153 127 136 95 168 173 186 181 178 238 214 217 201 179 206 239 58 71 190 197 192 201 209 148 49 60 198 193 133 130 91 86 97 87 116 261 286 297 285 272 188 169 253 290 263 182 197 227 237 247 252 257 251 196 188 223 256 290 306
208 212 214 208 207 209 206 206 201 189 177 175 179 175 167 161 157 188 212 215 168 124 105 144 161 162 157 160 173 172 163 114 83 141 157 181 181 187 208 166 225 201 173 233 260 94 76 43 277 214 216 136 107 67 27 44 122 142 144 119 111 121 111 175 250 294 269 266 263 171 172 199 293 280 176 172 201 208 229 243 234 181 144 163 195 278 297 304
208 212 210 204 208 215 210 206 206 200 189 174 174 168 163 162 183 209 201 160 167 148 123 149 156 157 167 171 169 174 170 129 138 152 150 161 176 188 182 160 180 193 193 239 228 153 138 162 156 166 142 117 112 90 48 58 131 155 158 157 160 171 176 206 207 176 238 251 303 112 173 185 252 267 149 141 184 202 226 245 233 191 137 152 269 292 293 291
201 204 208 208 209 213 214 211 209 204 200 185 175 172 169 172 213 227 196 97 154 176 153 164 162 164 180 182 172 171 168 155 165 175 173 173 183 187 193 194 174 184 225 221 200 155 187 202 155 118 151 174 156 117 89 91 179 196 185 176 199 216 203 222 210 194 231 233 103 88 201 212 242 256 251 231 236 233 238 245 256 284 291 287 291 287 287 287
203 199 202 208 209 209 212 214 210 209 209 187 175 182 194 197 205 218 197 157 155 164 129 144 163 172 179 184 181 166 168 173 172 183 185 180 197 201 206 212 195 202 239 203 187 173 193 205 160 151 183 204 200 168 149 173 188 196 191 182 201 211 219 234 218 216 238 216 99 124 162 244 255 266 266 257 252 240 233 239 260 279 277 279 281 278 279 282
208 202 199 202 210 210 211 213 206 212 217 191 171 180 210 213 211 207 205 196 99 92 104 131 151 169 178 185 179 161 167 184 171 177 183 180 205 210 207 216 210 219 246 196 197 190 213 248 180 176 167 178 200 216 193 170 178 200 203 196 210 216 230 242 231 241 247 208 129 161 171 236 249 303 317 282 295 273 249 249 261 263 261 267 273 273 276 278
208 207 201 199 208 206 207 213 205 210 215 188 157 172 203 208 211 199 198 181 127 116 117 137 145 164 182 183 141 170 187 205 175 178 186 189 207 207 202 210 207 207 204 209 215 188 221 243 164 154 147 165 186 220 197 165 177 199 200 213 229 233 237 254 269 253 295 327 217 195 229 251 263 297 288 268 282 274 247 241 247 251 254 264 271 271 274 276
208 208 203 202 209 206 202 207 208 213 208 176 139 194 212 215 224 192 177 139 151 141 129 145 157 173 186 181 189 194 223 85 169 180 202 206 224 220 212 209 198 199 199 201 201 179 221 253 128 124 146 168 180 208 182 186 197 180 182 207 222 22 264 248 236 102 75 278 252 218 251 268 283 288 274 245 238 239 235 233 237 246 254 262 265 266 269 272
212 210 208 206 209 212 205 202 213 217 202 178 155 195 216 240 263 294 350 47 143 146 144 162 180 190 191 186 194 190 181 154 169 185 196 194 227 225 216 218 200 198 203 207 220 210 220 262 148 167 183 171 28 24 124 355 4 160 189 192 116 45 319 246 248 217 214 251 255 234 250 265 271 275 276 196 218 229 233 237 241 251 256 255 257 263 267 271
219 221 225 214 209 212 206 202 214 213 194 173 194 209 218 233 216 254 333 347 150 156 174 197 187 191 199 196 188 177 174 174 174 191 194 178 211 209 197 205 202 199 206 211 223 221 207 236 216 171 201 131 95 175 188 144 12 27 302 187 137 226 222 206 225 237 237 245 256 252 256 261 249 251 266 236 220 229 234 229 224 234 242 245 255 264 270 275
221 227 240 225 211 206 203 204 206 200 183 158 203 207 212 223 229 250 288 320 279 189 200 210 201 200 208 207 185 165 176 186 173 182 200 187 195 193 186 191 196 199 204 205 214 210 188 225 224 63 340 123 135 206 205 171 152 347 311 249 208 249 236 214 211 218 239 246 253 261 262 256 245 248 261 262 257 255 252 246 235 227 233 244 256 266 274 278
210 221 245 226 211 201 198 201 197 185 175 204 205 190 194 207 222 228 237 271 330 239 213 218 217 213 210 212 190 164 181 199 186 189 205 189 188 194 188 189 181 185 196 199 210 214 181 217 224 132 18 191 180 204 202 183 173 186 220 214 201 200 234 284 246 223 239 247 252 261 265 264 259 253 261 269 271 262 257 259 244 226 240 252 256 265 274 280
196 219 242 215 206 195 187 191 190 183 196 216 211 212 207 209 203 207 222 235 258 297 338 33 242 235 222 214 202 177 183 201 200 204 208 197 208 217 184 190 176 151 172 195 207 210 195 209 215 171 178 213 210 197 199 199 190 192 203 206 206 199 182 231 233 212 219 243 253 261 270 272 268 246 262 269 273 276 272 259 236 236 252 258 257 266 278 286
197 220 230 199 196 188 181 186 199 197 213 214 208 212 207 214 204 184 191 209 226 265 269 177 302 267 287 255 234 174 179 199 204 205 211 212 218 217 167 194 184 157 160 188 200 201 193 206 220 210 198 202 177 107 80 324 274 245 232 218 217 203 188 214 222 196 186 208 253 265 265 270 266 129 237 263 257 287 276 250 258 258 252 255 267 278 289 298
206 218 203 185 190 186 179 193 214 203 223 220 210 206 191 189 201 183 168 180 196 205 202 217 209 203 235 251 240 18 153 209 224 215 225 241 234 224 136 147 168 169 176 186 183 180 152 176 220 228 223 190 125 96 60 29 327 266 253 223 226 219 209 219 231 226 202 191 214 230 242 262 269 103 108 279 97 144 212 229 252 255 245 252 270 284 295 302
210 219 215 190 189 187 184 199 210 206 223 219 214 210 194 190 194 187 176 177 181 180 189 202 196 197 217 211 197 219 186 188 255 247 243 258 254 222 138 153 165 179 196 206 172 169 166 182 201 217 233 209 184 190 200 171 181 236 238 219 223 224 215 206 110 263 242 221 223 225 237 256 261 104 117 151 152 192 210 220 231 233 237 251 268 284 297 298
205 213 224 206 195 195 201 214 213 212 217 214 219 219 207 204 199 194 192 186 186 190 195 199 188 184 188 179 187 208 199 192 228 249 241 255 270 50 190 200 194 198 217 233 171 161 177 203 178 196 224 218 211 213 196 186 181 204 227 220 219 216 210 208 197 217 236 236 232 232 244 258 264 261 230 183 172 206 214 212 220 226 235 248 262 280 296 297
203 206 211 206 205 211 218 224 230 230 214 209 217 220 215 218 207 200 201 197 192 197 206 209 194 182 173 171 186 202 200 198 211 218 218 235 243 220 217 218 212 215 227 221 170 151 139 281 192 203 224 227 238 255 115 137 163 194 211 210 212 212 209 213 221 222 232 242 243 235 239 257 268 269 262 252 236 236 232 230 232 232 239 248 261 285 302 298
210 211 197 188 202 223 231 227 225 230 218 209 211 217 216 220 219 203 202 204 197 198 209 219 204 196 186 181 190 206 203 200 209 217 223 225 220 158 167 212 221 230 241 198 170 152 80 260 225 231 239 243 256 266 233 162 180 203 209 203 204 207 205 206 219 228 230 239 248 242 237 249 264 269 266 265 270 273 268 258 255 247 242 251 270 292 301 292
215 221 209 198 196 214 224 216 211 215 219 214 213 221 217 217 221 211 201 206 206 200 204 219 214 214 210 197 195 206 204 204 209 214 221 224 212 176 151 176 214 224 222 180 169 152 144 226 230 234 245 252 258 261 258 246 234 227 219 208 199 199 201 206 220 229 228 231 248 254 250 247 256 266 269 271 276 276 276 277 272 260 249 252 269 283 287 282
218 234 219 213 219 221 220 216 207 211 218 217 218 224 219 215 219 217 202 197 212 208 206 216 216 215 216 214 213 216 210 207 208 208 213 219 214 204 207 210 169 173 178 155 145 134 173 222 229 225 239 252 253 255 255 253 254 252 245 236 218 205 203 207 218 226 227 232 244 252 257 255 254 263 272 279 279 275 278 284 279 262 253 255 263 272 276 274
213 224 216 219 235 236 229 219 203 204 213 216 220 222 218 218 219 218 205 191 195 202 205 218 223 216 217 221 222 224 222 215 211 208 204 208 212 209 215 214 190 124 106 141 155 208 190 220 238 230 242 253 255 259 258 254 257 261 260 257 248 235 218 210 217 224 227 235 239 243 253 259 258 261 271 278 277 274 277 278 270 261 259 260 262 268 271 268
214 213 210 219 229 224 226 218 202 200 202 206 216 216 215 218 218 218 211 199 199 202 200 214 226 224 222 226 227 232 236 233 237 238 226 221 222 212 207 203 190 170 141 168 167 157 187 220 355 259 245 252 254 259 262 264 266 266 264 256 245 241 235 223 218 217 221 231 236 239 247 256 262 265 268 272 273 273 273 272 271 269 266 262 263 266 268 267
215 211 212 220 229 217 217 219 210 211 205 196 208 213 216 221 220 220 219 205 210 219 211 210 223 228 228 232 231 235 244 246 255 264 263 268 271 255 240 234 224 199 154 162 177 154 174 194 192 197 228 249 251 257 266 271 265 250 246 243 237 237 241 242 236 225 223 227 232 239 243 249 263 268 262 261 266 270 271 272 273 272 266 263 263 265 268 269